Location: downtown San Diego
(32.7310°N, 117.1990°W)
Time: 22:19:02
(UTC-07:00)

Meteor 1-24 Rocket - Pass Details

Date: 14 June 2018
Orbit: 790 x 928 km, 81.3° (Epoch: 21 August)

Event Time Altitude Azimuth Distance (km) Brightness Sun altitude
Exits shadow 22:25:26 54° 169° (SSE) 1,105 3.9 -24.3°
Maximum altitude 22:26:51 78° 96° (E) 943 3.7 -24.5°
Drops below altitude 10° 22:32:54 10° 11° (N) 2,635 6.8 -25.2°
Sets 22:35:24 0° 10° (N) 3,581 7.6 -25.5°
